Station Historical Data
Daily Summary for October 14, 2017 Units:  Metric    English   Both
« Previous Day
Next Day »
Daily Weekly Monthly Yearly Custom
  High: Low: Average:
Temperature: 23.5 °C 17.4 °C 20.6 °C
Dew Point: 19.1 °C 16.1 °C 17.9 °C
Humidity: 92% 74% 85%
Wind Speed: 19.3km/h 3.2km/h 9.8km/h
Wind Gust: 19.3km/h - -
Wind- - ESE
Pressure: 1025.6 hPa 1021.6 hPa -
Precipitation: 0 mm    
Historical Graphs
 
 
Tabular Data for October 14, 2017
Time Temperature Dew Point Pressure Wind Wind Speed Wind Gust Humidity Rainfall Rate (Hourly) Conditions
00:00 21.1 °C 18.8 °C 1023.6 hPa East 12.9 km/h 12.9 km/h 87% 0 mm OVC
00:05 21.1 °C 18.8 °C 1023.6 hPa East 12.9 km/h 12.9 km/h 87% 0 mm OVC
00:10 21.1 °C 18.8 °C 1023.6 hPa East 12.9 km/h 12.9 km/h 87% 0 mm OVC
00:15 21 °C 18.8 °C 1023.6 hPa East 14.5 km/h 14.5 km/h 87% 0 mm OVC
00:20 21 °C 18.8 °C 1023.6 hPa East 14.5 km/h 14.5 km/h 87% 0 mm OVC
00:30 20.9 °C 18.7 °C 1023.6 hPa East 14.5 km/h 14.5 km/h 87% 0 mm OVC
00:35 20.9 °C 18.7 °C 1023.6 hPa East 14.5 km/h 14.5 km/h 87% 0 mm OVC
00:40 20.9 °C 18.7 °C 1023.6 hPa East 14.5 km/h 14.5 km/h 87% 0 mm OVC
00:45 20.9 °C 18.7 °C 1023.6 hPa East 14.5 km/h 14.5 km/h 87% 0 mm OVC
00:50 21 °C 18.8 °C 1023.6 hPa East 14.5 km/h 14.5 km/h 87% 0 mm OVC
00:55 21 °C 18.8 °C 1023.6 hPa East 14.5 km/h 14.5 km/h 87% 0 mm OVC
01:00 21 °C 18.8 °C 1023.6 hPa East 14.5 km/h 14.5 km/h 87% 0 mm OVC
01:05 20.9 °C 18.7 °C 1023.6 hPa East 14.5 km/h 14.5 km/h 87% 0 mm OVC
01:10 20.9 °C 18.9 °C 1023.6 hPa East 14.5 km/h 14.5 km/h 88% 0 mm OVC
01:15 20.9 °C 18.9 °C 1023.6 hPa East 16.1 km/h 16.1 km/h 88% 0 mm OVC
01:20 20.9 °C 18.9 °C 1023.6 hPa East 16.1 km/h 16.1 km/h 88% 0 mm OVC
01:25 20.9 °C 18.9 °C 1023.6 hPa East 16.1 km/h 16.1 km/h 88% 0 mm OVC
01:30 20.9 °C 18.9 °C 1023.6 hPa East 16.1 km/h 16.1 km/h 88% 0 mm OVC
01:40 20.9 °C 18.9 °C 1023.6 hPa East 16.1 km/h 16.1 km/h 88% 0 mm OVC
01:45 20.9 °C 18.9 °C 1023.2 hPa East 16.1 km/h 16.1 km/h 88% 0 mm OVC
01:50 20.9 °C 18.7 °C 1023.2 hPa East 16.1 km/h 16.1 km/h 87% 0 mm OVC
01:55 20.9 °C 18.8 °C 1023.2 hPa East 16.1 km/h 16.1 km/h 88% 0 mm OVC
02:00 20.9 °C 18.8 °C 1023.2 hPa East 16.1 km/h 16.1 km/h 88% 0 mm OVC
02:05 20.9 °C 18.8 °C 1023.2 hPa East 16.1 km/h 16.1 km/h 88% 0 mm OVC
02:10 20.9 °C 18.7 °C 1023.2 hPa East 16.1 km/h 16.1 km/h 87% 0 mm OVC
02:15 20.8 °C 18.6 °C 1023.6 hPa East 19.3 km/h 19.3 km/h 87% 0 mm OVC
02:20 20.8 °C 18.6 °C 1023.6 hPa East 19.3 km/h 19.3 km/h 87% 0 mm OVC
02:25 20.8 °C 18.6 °C 1023.6 hPa East 19.3 km/h 19.3 km/h 87% 0 mm OVC
02:30 20.8 °C 18.6 °C 1023.6 hPa East 19.3 km/h 19.3 km/h 87% 0 mm OVC
02:35 20.8 °C 18.7 °C 1023.2 hPa East 19.3 km/h 19.3 km/h 88% 0 mm OVC
02:40 20.8 °C 18.6 °C 1023.6 hPa East 19.3 km/h 19.3 km/h 87% 0 mm OVC
02:45 20.7 °C 18.5 °C 1023.6 hPa East 19.3 km/h 19.3 km/h 87% 0 mm OVC
02:50 20.7 °C 18.4 °C 1023.2 hPa East 19.3 km/h 19.3 km/h 87% 0 mm OVC
02:55 20.6 °C 18.6 °C 1023.2 hPa East 19.3 km/h 19.3 km/h 88% 0 mm OVC
03:00 20.6 °C 18.5 °C 1023.2 hPa East 19.3 km/h 19.3 km/h 88% 0 mm OVC
03:05 20.4 °C 18.4 °C 1023.2 hPa East 19.3 km/h 19.3 km/h 88% 0 mm OVC
03:10 20.4 °C 18.3 °C 1023.2 hPa East 19.3 km/h 19.3 km/h 88% 0 mm OVC
03:15 20.4 °C 18.3 °C 1023.2 hPa East 11.3 km/h 19.3 km/h 88% 0 mm OVC
03:20 20.3 °C 18.3 °C 1023.2 hPa East 11.3 km/h 11.3 km/h 88% 0 mm OVC
03:25 20.3 °C 18.3 °C 1023.2 hPa East 11.3 km/h 11.3 km/h 88% 0 mm OVC
03:30 20.3 °C 18.4 °C 1023.2 hPa East 11.3 km/h 11.3 km/h 89% 0 mm OVC
03:35 20.3 °C 18.4 °C 1023.2 hPa East 11.3 km/h 11.3 km/h 89% 0 mm OVC
03:40 20.3 °C 18.4 °C 1023.2 hPa East 11.3 km/h 11.3 km/h 89% 0 mm OVC
03:45 20.2 °C 18.3 °C 1022.9 hPa East 11.3 km/h 11.3 km/h 89% 0 mm OVC
03:50 20.2 °C 18.3 °C 1022.9 hPa East 11.3 km/h 11.3 km/h 89% 0 mm OVC
03:55 20.2 °C 18.3 °C 1022.9 hPa East 11.3 km/h 11.3 km/h 89% 0 mm OVC
04:00 20.2 °C 18.3 °C 1022.9 hPa East 11.3 km/h 11.3 km/h 89% 0 mm OVC
04:05 20.2 °C 18.3 °C 1023.2 hPa East 11.3 km/h 11.3 km/h 89% 0 mm OVC
04:10 20.2 °C 18.3 °C 1023.2 hPa East 11.3 km/h 11.3 km/h 89% 0 mm OVC
04:15 20.2 °C 18.3 °C 1023.2 hPa East 9.7 km/h 11.3 km/h 89% 0 mm OVC
04:20 20.1 °C 18.2 °C 1022.9 hPa ESE 9.7 km/h 9.7 km/h 89% 0 mm OVC
04:25 20.1 °C 18.2 °C 1023.2 hPa ESE 9.7 km/h 9.7 km/h 89% 0 mm OVC
04:30 20.1 °C 18.2 °C 1023.2 hPa ESE 9.7 km/h 9.7 km/h 89% 0 mm OVC
04:35 20.1 °C 18.2 °C 1023.2 hPa ESE 9.7 km/h 9.7 km/h 89% 0 mm OVC
04:40 20 °C 18.2 °C 1023.2 hPa ESE 9.7 km/h 9.7 km/h 89% 0 mm OVC
04:45 20 °C 18.1 °C 1023.2 hPa ESE 9.7 km/h 9.7 km/h 89% 0 mm OVC
04:50 20 °C 18.1 °C 1023.2 hPa ESE 9.7 km/h 9.7 km/h 89% 0 mm OVC
04:55 20 °C 18.1 °C 1023.2 hPa ESE 9.7 km/h 9.7 km/h 89% 0 mm OVC
05:00 20 °C 18.1 °C 1023.2 hPa ESE 9.7 km/h 9.7 km/h 89% 0 mm OVC
05:05 20 °C 18.1 °C 1023.2 hPa ESE 9.7 km/h 9.7 km/h 89% 0 mm OVC
05:10 20 °C 18.1 °C 1023.2 hPa ESE 9.7 km/h 9.7 km/h 89% 0 mm OVC
05:15 20 °C 18.1 °C 1023.2 hPa ESE 12.9 km/h 12.9 km/h 89% 0 mm OVC
05:20 20 °C 18.1 °C 1023.2 hPa East 12.9 km/h 12.9 km/h 89% 0 mm OVC
05:25 20 °C 18.1 °C 1023.6 hPa East 12.9 km/h 12.9 km/h 89% 0 mm OVC
05:30 20 °C 18.1 °C 1023.6 hPa East 12.9 km/h 12.9 km/h 89% 0 mm OVC
05:40 19.9 °C 18.1 °C 1023.6 hPa East 12.9 km/h 12.9 km/h 89% 0 mm OVC
05:45 19.9 °C 18.1 °C 1023.6 hPa East 12.9 km/h 12.9 km/h 89% 0 mm OVC
05:50 19.9 °C 18.1 °C 1023.6 hPa East 12.9 km/h 12.9 km/h 89% 0 mm OVC
05:55 19.9 °C 17.9 °C 1023.6 hPa East 12.9 km/h 12.9 km/h 88% 0 mm OVC
06:00 19.9 °C 17.9 °C 1023.6 hPa East 12.9 km/h 12.9 km/h 88% 0 mm OVC
06:05 19.9 °C 17.9 °C 1023.6 hPa East 12.9 km/h 12.9 km/h 88% 0 mm OVC
06:10 19.9 °C 17.8 °C 1023.6 hPa East 12.9 km/h 12.9 km/h 88% 0 mm OVC
06:15 19.9 °C 17.8 °C 1023.6 hPa East 14.5 km/h 14.5 km/h 88% 0 mm OVC
06:20 19.8 °C 17.8 °C 1023.6 hPa East 14.5 km/h 14.5 km/h 88% 0 mm OVC
06:25 19.8 °C 17.8 °C 1023.6 hPa East 14.5 km/h 14.5 km/h 88% 0 mm OVC
06:30 19.8 °C 17.7 °C 1023.6 hPa East 14.5 km/h 14.5 km/h 88% 0 mm OVC
06:35 19.8 °C 17.7 °C 1023.9 hPa East 14.5 km/h 14.5 km/h 88% 0 mm OVC
06:40 19.8 °C 17.7 °C 1023.9 hPa East 14.5 km/h 14.5 km/h 88% 0 mm OVC
06:45 19.8 °C 17.7 °C 1023.9 hPa East 14.5 km/h 14.5 km/h 88% 0 mm OVC
06:50 19.8 °C 17.7 °C 1023.9 hPa East 14.5 km/h 14.5 km/h 88% 0 mm OVC
06:55 19.7 °C 17.7 °C 1023.9 hPa East 14.5 km/h 14.5 km/h 88% 0 mm OVC
07:00 19.7 °C 17.7 °C 1023.9 hPa East 14.5 km/h 14.5 km/h 88% 0 mm OVC
07:05 19.7 °C 17.7 °C 1024.3 hPa East 14.5 km/h 14.5 km/h 88% 0 mm OVC
07:10 19.7 °C 17.7 °C 1024.3 hPa East 14.5 km/h 14.5 km/h 88% 0 mm OVC
07:15 19.7 °C 17.7 °C 1024.3 hPa East 16.1 km/h 16.1 km/h 88% 0 mm OVC
07:20 19.7 °C 17.7 °C 1024.3 hPa East 16.1 km/h 16.1 km/h 88% 0 mm OVC
07:25 19.7 °C 17.7 °C 1024.3 hPa East 16.1 km/h 16.1 km/h 88% 0 mm OVC
07:30 19.7 °C 17.7 °C 1024.3 hPa East 16.1 km/h 16.1 km/h 88% 0 mm OVC
07:35 19.7 °C 17.6 °C 1024.3 hPa East 16.1 km/h 16.1 km/h 88% 0 mm OVC
07:40 19.7 °C 17.6 °C 1024.3 hPa East 16.1 km/h 16.1 km/h 88% 0 mm OVC
07:45 19.7 °C 17.6 °C 1024.6 hPa East 14.5 km/h 16.1 km/h 88% 0 mm BKN
07:50 19.7 °C 17.6 °C 1024.6 hPa East 14.5 km/h 14.5 km/h 88% 0 mm BKN
07:55 19.7 °C 17.6 °C 1024.6 hPa East 14.5 km/h 14.5 km/h 88% 0 mm BKN
08:00 19.7 °C 17.6 °C 1024.6 hPa East 14.5 km/h 14.5 km/h 88% 0 mm BKN
08:05 19.7 °C 17.6 °C 1024.6 hPa East 14.5 km/h 14.5 km/h 88% 0 mm BKN
08:10 19.7 °C 17.6 °C 1024.6 hPa East 14.5 km/h 14.5 km/h 88% 0 mm BKN
08:15 19.7 °C 17.6 °C 1024.6 hPa East 11.3 km/h 14.5 km/h 88% 0 mm OVC
08:20 19.7 °C 17.6 °C 1024.6 hPa East 11.3 km/h 11.3 km/h 88% 0 mm OVC
08:25 19.7 °C 17.6 °C 1024.6 hPa East 11.3 km/h 11.3 km/h 88% 0 mm OVC
08:30 19.7 °C 17.6 °C 1024.6 hPa East 11.3 km/h 11.3 km/h 88% 0 mm OVC
08:35 19.7 °C 17.6 °C 1024.6 hPa East 11.3 km/h 11.3 km/h 88% 0 mm OVC
08:40 19.7 °C 17.6 °C 1024.9 hPa East 11.3 km/h 11.3 km/h 88% 0 mm OVC
08:45 19.7 °C 17.7 °C 1024.9 hPa East 11.3 km/h 11.3 km/h 88% 0 mm OVC
08:50 19.7 °C 17.7 °C 1024.9 hPa East 11.3 km/h 11.3 km/h 88% 0 mm OVC
08:55 19.7 °C 17.7 °C 1024.9 hPa East 11.3 km/h 11.3 km/h 88% 0 mm OVC
09:00 19.7 °C 17.7 °C 1024.9 hPa East 11.3 km/h 11.3 km/h 88% 0 mm OVC
09:05 19.7 °C 17.7 °C 1024.9 hPa East 11.3 km/h 11.3 km/h 88% 0 mm OVC
09:10 19.7 °C 17.8 °C 1025.3 hPa East 11.3 km/h 11.3 km/h 89% 0 mm OVC
09:15 19.7 °C 17.8 °C 1025.3 hPa East 12.9 km/h 12.9 km/h 89% 0 mm OVC
09:20 19.8 °C 17.7 °C 1025.3 hPa East 12.9 km/h 12.9 km/h 88% 0 mm OVC
09:25 19.8 °C 17.9 °C 1025.3 hPa East 12.9 km/h 12.9 km/h 89% 0 mm OVC
09:30 19.8 °C 17.9 °C 1025.3 hPa East 12.9 km/h 12.9 km/h 89% 0 mm OVC
09:40 19.9 °C 17.8 °C 1025.3 hPa East 12.9 km/h 12.9 km/h 88% 0 mm OVC
09:45 19.9 °C 17.8 °C 1025.6 hPa East 12.9 km/h 12.9 km/h 88% 0 mm OVC
09:50 19.9 °C 17.9 °C 1025.6 hPa East 12.9 km/h 12.9 km/h 88% 0 mm OVC
09:55 19.9 °C 17.9 °C 1025.6 hPa East 12.9 km/h 12.9 km/h 88% 0 mm OVC
10:00 19.9 °C 17.9 °C 1025.6 hPa East 12.9 km/h 12.9 km/h 88% 0 mm OVC
10:05 19.9 °C 17.9 °C 1025.6 hPa East 12.9 km/h 12.9 km/h 88% 0 mm OVC
10:10 20 °C 17.9 °C 1025.6 hPa East 12.9 km/h 12.9 km/h 88% 0 mm OVC
10:15 20 °C 17.9 °C 1025.6 hPa East 14.5 km/h 14.5 km/h 88% 0 mm OVC
10:20 20.1 °C 18 °C 1025.6 hPa East 14.5 km/h 14.5 km/h 88% 0 mm OVC
10:30 20.1 °C 17.7 °C 1025.6 hPa East 14.5 km/h 14.5 km/h 86% 0 mm OVC
10:35 20.1 °C 17.9 °C 1025.6 hPa East 14.5 km/h 14.5 km/h 87% 0 mm OVC
10:40 20.1 °C 17.7 °C 1025.6 hPa East 14.5 km/h 14.5 km/h 86% 0 mm OVC
10:45 20.2 °C 17.7 °C 1025.6 hPa East 14.5 km/h 14.5 km/h 86% 0 mm OVC
10:50 20.2 °C 17.7 °C 1025.6 hPa East 14.5 km/h 14.5 km/h 86% 0 mm OVC
10:55 20.2 °C 17.8 °C 1025.6 hPa East 14.5 km/h 14.5 km/h 86% 0 mm OVC
11:00 20.3 °C 17.8 °C 1025.6 hPa East 14.5 km/h 14.5 km/h 86% 0 mm OVC
11:05 20.3 °C 17.7 °C 1025.6 hPa East 14.5 km/h 14.5 km/h 85% 0 mm OVC
11:10 20.3 °C 17.9 °C 1025.6 hPa East 14.5 km/h 14.5 km/h 86% 0 mm OVC
11:15 20.3 °C 17.7 °C 1025.6 hPa East 11.3 km/h 14.5 km/h 85% 0 mm OVC
11:20 20.3 °C 17.5 °C 1025.6 hPa East 11.3 km/h 11.3 km/h 84% 0 mm OVC
11:25 20.3 °C 17.6 °C 1025.6 hPa East 11.3 km/h 11.3 km/h 84% 0 mm OVC
11:30 20.4 °C 17.7 °C 1025.6 hPa East 11.3 km/h 11.3 km/h 84% 0 mm OVC
11:40 20.6 °C 17.6 °C 1025.3 hPa East 11.3 km/h 11.3 km/h 83% 0 mm OVC
11:45 20.6 °C 17.4 °C 1025.3 hPa East 11.3 km/h 11.3 km/h 82% 0 mm OVC
11:50 20.7 °C 17.7 °C 1025.3 hPa East 11.3 km/h 11.3 km/h 83% 0 mm OVC
11:55 20.7 °C 17.7 °C 1025.3 hPa East 11.3 km/h 11.3 km/h 83% 0 mm OVC
12:00 20.7 °C 17.7 °C 1025.3 hPa East 11.3 km/h 11.3 km/h 83% 0 mm OVC
12:05 20.7 °C 17.7 °C 1025.3 hPa East 11.3 km/h 11.3 km/h 83% 0 mm OVC
12:10 20.7 °C 17.7 °C 1025.3 hPa East 11.3 km/h 11.3 km/h 83% 0 mm OVC
12:15 20.7 °C 17.9 °C 1025.3 hPa East 9.7 km/h 11.3 km/h 84% 0 mm OVC
12:20 20.8 °C 18 °C 1025.3 hPa East 9.7 km/h 9.7 km/h 84% 0 mm OVC
12:25 20.8 °C 17.8 °C 1025.3 hPa East 9.7 km/h 9.7 km/h 83% 0 mm OVC
12:30 20.9 °C 17.9 °C 1025.3 hPa East 9.7 km/h 9.7 km/h 83% 0 mm OVC
12:35 20.9 °C 17.9 °C 1024.9 hPa East 9.7 km/h 9.7 km/h 83% 0 mm OVC
12:40 20.9 °C 17.8 °C 1024.9 hPa East 9.7 km/h 9.7 km/h 82% 0 mm OVC
12:45 21 °C 17.8 °C 1024.9 hPa East 9.7 km/h 9.7 km/h 82% 0 mm OVC
12:50 21.1 °C 18.1 °C 1024.9 hPa East 9.7 km/h 9.7 km/h 83% 0 mm OVC
12:55 21.1 °C 17.9 °C 1024.9 hPa East 9.7 km/h 9.7 km/h 82% 0 mm OVC
13:00 21.1 °C 17.9 °C 1024.9 hPa East 9.7 km/h 9.7 km/h 82% 0 mm OVC
13:05 21.1 °C 18.1 °C 1024.9 hPa East 9.7 km/h 9.7 km/h 83% 0 mm OVC
13:10 21.1 °C 17.9 °C 1024.6 hPa East 9.7 km/h 9.7 km/h 82% 0 mm OVC
13:15 21.2 °C 17.9 °C 1024.6 hPa ESE 12.9 km/h 12.9 km/h 82% 0 mm OVC
13:20 21.2 °C 17.9 °C 1024.6 hPa SE 12.9 km/h 12.9 km/h 82% 0 mm OVC
13:25 21.2 °C 17.8 °C 1024.3 hPa SE 12.9 km/h 12.9 km/h 81% 0 mm OVC
13:30 21.3 °C 17.9 °C 1024.3 hPa SE 12.9 km/h 12.9 km/h 81% 0 mm OVC
13:35 21.4 °C 18.2 °C 1024.3 hPa SE 12.9 km/h 12.9 km/h 82% 0 mm OVC
13:40 21.6 °C 18.2 °C 1023.9 hPa SE 12.9 km/h 12.9 km/h 81% 0 mm OVC
13:45 21.7 °C 18.1 °C 1023.9 hPa SE 12.9 km/h 12.9 km/h 80% 0 mm OVC
13:50 21.8 °C 18 °C 1023.9 hPa SE 12.9 km/h 12.9 km/h 79% 0 mm OVC
13:55 21.8 °C 18 °C 1023.6 hPa SE 12.9 km/h 12.9 km/h 79% 0 mm OVC
14:00 21.9 °C 18.1 °C 1023.6 hPa SE 12.9 km/h 12.9 km/h 79% 0 mm OVC
14:05 22 °C 18 °C 1023.6 hPa SE 12.9 km/h 12.9 km/h 78% 0 mm OVC
14:10 22.1 °C 18.2 °C 1023.2 hPa SE 12.9 km/h 12.9 km/h 79% 0 mm OVC
14:15 22.2 °C 18.3 °C 1023.2 hPa SE 4.8 km/h 12.9 km/h 79% 0 mm OVC
14:20 22.2 °C 18.2 °C 1023.2 hPa ESE 4.8 km/h 4.8 km/h 78% 0 mm OVC
14:25 22.2 °C 18.2 °C 1022.9 hPa ESE 4.8 km/h 4.8 km/h 78% 0 mm OVC
14:30 22.3 °C 18.3 °C 1022.9 hPa ESE 4.8 km/h 4.8 km/h 78% 0 mm OVC
14:40 22.3 °C 17.8 °C 1022.9 hPa ESE 4.8 km/h 4.8 km/h 76% 0 mm OVC
14:45 22.3 °C 18.1 °C 1022.6 hPa ESE 4.8 km/h 4.8 km/h 77% 0 mm OVC
14:50 22.4 °C 18.4 °C 1022.6 hPa ESE 4.8 km/h 4.8 km/h 78% 0 mm OVC
14:55 22.6 °C 18.1 °C 1022.6 hPa ESE 4.8 km/h 4.8 km/h 76% 0 mm OVC
15:00 22.6 °C 18.1 °C 1022.6 hPa ESE 4.8 km/h 4.8 km/h 76% 0 mm OVC
15:05 22.6 °C 18.1 °C 1022.6 hPa ESE 4.8 km/h 4.8 km/h 76% 0 mm OVC
15:10 22.6 °C 18.3 °C 1022.6 hPa ESE 4.8 km/h 4.8 km/h 77% 0 mm OVC
15:15 22.6 °C 18.4 °C 1022.6 hPa ESE 4.8 km/h 4.8 km/h 77% 0 mm OVC
15:20 22.7 °C 18.7 °C 1022.6 hPa ESE 4.8 km/h 4.8 km/h 78% 0 mm OVC
15:25 22.8 °C 18.6 °C 1022.2 hPa SE 4.8 km/h 4.8 km/h 77% 0 mm OVC
15:30 22.9 °C 18.4 °C 1022.2 hPa SE 4.8 km/h 4.8 km/h 76% 0 mm OVC
15:40 22.7 °C 18.4 °C 1022.2 hPa SE 4.8 km/h 4.8 km/h 77% 0 mm OVC
15:45 22.7 °C 18.2 °C 1022.2 hPa SE 4.8 km/h 4.8 km/h 76% 0 mm OVC
15:50 22.7 °C 18.5 °C 1022.2 hPa SE 4.8 km/h 4.8 km/h 77% 0 mm OVC
15:55 22.7 °C 18.3 °C 1022.2 hPa SE 4.8 km/h 4.8 km/h 76% 0 mm OVC
16:00 22.8 °C 18.6 °C 1022.2 hPa SE 4.8 km/h 4.8 km/h 77% 0 mm OVC
16:05 22.9 °C 18.3 °C 1021.9 hPa SE 4.8 km/h 4.8 km/h 75% 0 mm OVC
16:10 22.9 °C 18.5 °C 1021.9 hPa SE 4.8 km/h 4.8 km/h 76% 0 mm OVC
16:15 23 °C 18.6 °C 1021.9 hPa SE 4.8 km/h 4.8 km/h 76% 0 mm OVC
16:20 23.1 °C 18.4 °C 1021.9 hPa SE 4.8 km/h 4.8 km/h 75% 0 mm OVC
16:25 23.2 °C 18.5 °C 1021.9 hPa SE 4.8 km/h 4.8 km/h 75% 0 mm OVC
16:30 23.2 °C 18.3 °C 1021.9 hPa SE 4.8 km/h 4.8 km/h 74% 0 mm OVC
16:40 23.2 °C 18.5 °C 1021.9 hPa SE 4.8 km/h 4.8 km/h 75% 0 mm OVC
16:50 23.2 °C 18.5 °C 1021.9 hPa SE 4.8 km/h 4.8 km/h 75% 0 mm OVC
16:55 23.2 °C 18.6 °C 1021.6 hPa SE 4.8 km/h 4.8 km/h 75% 0 mm OVC
17:00 23.4 °C 18.5 °C 1021.6 hPa SE 4.8 km/h 4.8 km/h 74% 0 mm OVC
17:05 23.4 °C 18.7 °C 1021.6 hPa SE 4.8 km/h 4.8 km/h 75% 0 mm OVC
17:10 23.4 °C 18.5 °C 1021.6 hPa SE 4.8 km/h 4.8 km/h 74% 0 mm OVC
17:15 23.4 °C 18.8 °C 1021.6 hPa ESE 4.8 km/h 4.8 km/h 75% 0 mm BKN
17:20 23.5 °C 18.6 °C 1021.6 hPa East 4.8 km/h 4.8 km/h 74% 0 mm BKN
17:25 23.5 °C 19 °C 1021.6 hPa East 4.8 km/h 4.8 km/h 76% 0 mm BKN
17:30 23.4 °C 18.8 °C 1021.6 hPa East 4.8 km/h 4.8 km/h 75% 0 mm BKN
17:35 23.4 °C 19.1 °C 1021.6 hPa East 4.8 km/h 4.8 km/h 77% 0 mm BKN
17:40 23.3 °C 18.9 °C 1021.6 hPa East 4.8 km/h 4.8 km/h 76% 0 mm BKN
17:45 23.3 °C 19 °C 1021.9 hPa East 4.8 km/h 4.8 km/h 77% 0 mm BKN
17:50 23.3 °C 19 °C 1021.6 hPa East 4.8 km/h 4.8 km/h 77% 0 mm BKN
17:55 23.2 °C 18.5 °C 1021.6 hPa ESE 4.8 km/h 4.8 km/h 75% 0 mm SCT
18:00 23.2 °C 18.7 °C 1021.9 hPa SSE 4.8 km/h 4.8 km/h 76% 0 mm SCT
18:05 23.1 °C 18.9 °C 1021.6 hPa SSE 4.8 km/h 4.8 km/h 77% 0 mm SCT
18:10 23.1 °C 19 °C 1021.9 hPa SSE 4.8 km/h 4.8 km/h 78% 0 mm SCT
18:15 22.9 °C 18.8 °C 1021.9 hPa South 3.2 km/h 4.8 km/h 78% 0 mm SCT
18:20 22.7 °C 18.8 °C 1021.9 hPa South 3.2 km/h 3.2 km/h 79% 0 mm SCT
18:25 22.6 °C 18.7 °C 1021.9 hPa South 3.2 km/h 3.2 km/h 79% 0 mm SCT
18:30 22.4 °C 18.8 °C 1021.9 hPa South 3.2 km/h 3.2 km/h 80% 0 mm SCT
18:40 22.2 °C 18.7 °C 1021.9 hPa South 3.2 km/h 3.2 km/h 81% 0 mm SCT
18:45 22.1 °C 18.7 °C 1021.9 hPa South 3.2 km/h 3.2 km/h 81% 0 mm SCT
18:50 21.9 °C 18.7 °C 1021.9 hPa South 3.2 km/h 3.2 km/h 82% 0 mm SCT
18:55 21.7 °C 18.5 °C 1021.9 hPa South 8 km/h 8 km/h 82% 0 mm BKN
19:00 21.6 °C 18.5 °C 1021.9 hPa South 8 km/h 8 km/h 83% 0 mm BKN
19:05 21.4 °C 18.4 °C 1021.9 hPa South 8 km/h 8 km/h 83% 0 mm BKN
19:10 21.3 °C 18.4 °C 1021.9 hPa South 8 km/h 8 km/h 84% 0 mm BKN
19:15 21.2 °C 18.3 °C 1021.9 hPa South 8 km/h 8 km/h 84% 0 mm SCT
19:20 21 °C 18.2 °C 1021.9 hPa South 8 km/h 8 km/h 84% 0 mm SCT
19:25 20.8 °C 18.2 °C 1021.9 hPa South 8 km/h 8 km/h 85% 0 mm SCT
19:30 20.7 °C 18.1 °C 1021.9 hPa South 8 km/h 8 km/h 85% 0 mm SCT
19:40 20.4 °C 18 °C 1022.2 hPa South 8 km/h 8 km/h 86% 0 mm SCT
19:50 20.2 °C 17.7 °C 1022.2 hPa South 8 km/h 8 km/h 86% 0 mm SCT
19:55 20.1 °C 17.7 °C 1022.2 hPa South 8 km/h 8 km/h 86% 0 mm SCT
20:00 19.9 °C 17.7 °C 1022.2 hPa South 8 km/h 8 km/h 87% 0 mm SCT
20:05 19.8 °C 17.6 °C 1022.2 hPa South 8 km/h 8 km/h 87% 0 mm SCT
20:10 19.7 °C 17.6 °C 1022.2 hPa South 8 km/h 8 km/h 88% 0 mm SCT
20:15 19.6 °C 17.5 °C 1022.2 hPa SSW 3.2 km/h 8 km/h 88% 0 mm FEW
20:20 19.4 °C 17.4 °C 1022.2 hPa SSW 3.2 km/h 3.2 km/h 88% 0 mm FEW
20:25 19.4 °C 17.3 °C 1022.2 hPa SSW 3.2 km/h 3.2 km/h 88% 0 mm FEW
20:30 19.3 °C 17.2 °C 1022.2 hPa SSW 3.2 km/h 3.2 km/h 88% 0 mm FEW
20:35 19.2 °C 17.2 °C 1022.2 hPa SSW 3.2 km/h 3.2 km/h 88% 0 mm FEW
20:40 19.1 °C 17.3 °C 1022.2 hPa SSW 3.2 km/h 3.2 km/h 89% 0 mm FEW
20:45 19.1 °C 17.2 °C 1022.6 hPa SSW 3.2 km/h 3.2 km/h 89% 0 mm FEW
20:50 19 °C 17.2 °C 1022.6 hPa SSW 3.2 km/h 3.2 km/h 89% 0 mm FEW
20:55 18.9 °C 17.1 °C 1022.6 hPa SSW 3.2 km/h 3.2 km/h 89% 0 mm FEW
21:00 18.8 °C 17 °C 1022.6 hPa SSW 3.2 km/h 3.2 km/h 89% 0 mm FEW
21:05 18.8 °C 17.1 °C 1022.6 hPa SSW 3.2 km/h 3.2 km/h 90% 0 mm FEW
21:10 18.7 °C 17 °C 1022.6 hPa SSW 3.2 km/h 3.2 km/h 90% 0 mm FEW
21:15 18.6 °C 16.9 °C 1022.6 hPa SSW 3.2 km/h 3.2 km/h 90% 0 mm CLR
21:20 18.6 °C 16.9 °C 1022.2 hPa SSW 3.2 km/h 3.2 km/h 90% 0 mm CLR
21:25 18.5 °C 16.8 °C 1022.2 hPa SSW 3.2 km/h 3.2 km/h 90% 0 mm CLR
21:30 18.4 °C 16.8 °C 1022.6 hPa SSW 3.2 km/h 3.2 km/h 90% 0 mm CLR
21:40 18.4 °C 16.9 °C 1022.6 hPa SSW 3.2 km/h 3.2 km/h 91% 0 mm CLR
21:45 18.3 °C 16.8 °C 1022.6 hPa SSW 3.2 km/h 3.2 km/h 91% 0 mm CLR
21:50 18.3 °C 16.8 °C 1022.6 hPa SSW 3.2 km/h 3.2 km/h 91% 0 mm CLR
21:55 18.3 °C 16.8 °C 1022.6 hPa SSW 3.2 km/h 3.2 km/h 91% 0 mm CLR
22:00 18.2 °C 16.7 °C 1022.2 hPa SSW 3.2 km/h 3.2 km/h 91% 0 mm CLR
22:05 18.2 °C 16.7 °C 1022.6 hPa SSW 3.2 km/h 3.2 km/h 91% 0 mm CLR
22:10 18.2 °C 16.7 °C 1022.6 hPa SSW 3.2 km/h 3.2 km/h 91% 0 mm CLR
22:20 18.1 °C 16.6 °C 1022.6 hPa SSW 3.2 km/h 3.2 km/h 91% 0 mm CLR
22:25 18.1 °C 16.6 °C 1022.6 hPa SSW 3.2 km/h 3.2 km/h 91% 0 mm CLR
22:30 18 °C 16.7 °C 1022.6 hPa SSW 3.2 km/h 3.2 km/h 92% 0 mm CLR
22:40 18 °C 16.7 °C 1022.6 hPa SSW 3.2 km/h 3.2 km/h 92% 0 mm CLR
22:45 18 °C 16.7 °C 1022.6 hPa SSW 3.2 km/h 3.2 km/h 92% 0 mm CLR
22:50 18 °C 16.7 °C 1022.6 hPa SSW 3.2 km/h 3.2 km/h 92% 0 mm CLR
22:55 17.9 °C 16.6 °C 1022.6 hPa SSW 3.2 km/h 3.2 km/h 92% 0 mm CLR
23:00 17.8 °C 16.5 °C 1022.2 hPa SSW 3.2 km/h 3.2 km/h 92% 0 mm CLR
23:05 17.8 °C 16.4 °C 1022.2 hPa SSW 3.2 km/h 3.2 km/h 92% 0 mm CLR
23:10 17.8 °C 16.4 °C 1022.2 hPa SSW 3.2 km/h 3.2 km/h 92% 0 mm CLR
23:15 17.8 °C 16.4 °C 1022.2 hPa North 4.8 km/h 4.8 km/h 92% 0 mm CLR
23:20 17.8 °C 16.4 °C 1022.2 hPa NNE 4.8 km/h 4.8 km/h 92% 0 mm CLR
23:25 17.7 °C 16.3 °C 1022.2 hPa NNE 4.8 km/h 4.8 km/h 92% 0 mm CLR
23:30 17.6 °C 16.3 °C 1022.2 hPa NNE 4.8 km/h 4.8 km/h 92% 0 mm CLR
23:35 17.6 °C 16.2 °C 1022.2 hPa NNE 4.8 km/h 4.8 km/h 92% 0 mm CLR
23:40 17.5 °C 16.2 °C 1022.2 hPa NNE 4.8 km/h 4.8 km/h 92% 0 mm CLR
23:45 17.4 °C 16.2 °C 1022.2 hPa NNE 4.8 km/h 4.8 km/h 92% 0 mm CLR
23:50 17.4 °C 16.1 °C 1022.2 hPa NNE 4.8 km/h 4.8 km/h 92% 0 mm CLR
23:55 17.4 °C 16.1 °C 1021.9 hPa NNE 4.8 km/h 4.8 km/h 92% 0 mm CLR
Piedmont Bend
Compliments of Weather Underground - 4 mb